Location: Highridge
(54.0333°N, 114.1333°W)
Time: 07:06:45
(UTC+00:00)

SO-50 - Pass Details

Date: 07 December 2023
Orbit: 608 x 660 km, 64.6° (Epoch: 02 March)

Event Time Altitude Azimuth Distance (km) Brightness Sun altitude
Exits shadow 13:47:13 21° 319° (NW) 1,435 ? -15.4°
Maximum altitude 13:48:37 25° 346° (NNW) 1,311 ? -15.2°
Drops below altitude 10° 13:52:25 10° 42° (NE) 2,030 ? -14.7°
Sets 13:55:03 0° 56° (ENE) 2,929 ? -14.3°
